Goodland, KS

10:25 AM MST on December 03, 2016 (GMT -0700)
Renner-Goodland Municipal

Weather History for KGLD - April, 2012

Change the Weather History Date:

Tuesday, April 24, 2012

  Actual Average Record
Temperature  
Mean Temperature 72 °F 52 °F  
Max Temperature 93 °F 66 °F 93 °F (2012)
Min Temperature 50 °F 38 °F 19 °F (2013)
Degree Days  
Heating Degree Days 0 13  
Month to date heating degree days 286 406  
Since 1 July heating degree days 4881 5581  
Cooling Degree Days 7 0  
Month to date cooling degree days 11 0  
Year to date cooling degree days 13 0  
Growing Degree Days 22 (Base 50)    
Moisture  
Dew Point 38 °F    
Average Humidity 37    
Maximum Humidity 63    
Minimum Humidity 10    
Precipitation  
Precipitation T in 0.07 in 1.92 in (1932)
Month to date precipitation 2.14 1.22  
Year to date precipitation 3.25 3.16  
Snow  
Snow 0.00 in 0.10 in - ()
Month to date snowfall T 3.8  
Since 1 July snowfall 17.1 34.6  
Snow Depth 0.00 in    
Sea Level Pressure  
Sea Level Pressure 29.70 in    
Wind  
Wind Speed 12 mph (West)    
Max Wind Speed 46 mph    
Max Gust Speed 56 mph    
Visibility 10 miles    
Events Thunderstorm    
T = Trace of Precipitation, MM = Missing Value Source: NWS Daily Summary

Daily Weather History Graph

Daily Weather History Graph

Search for Another Location

Airport or City:

Trip Planner

Search our weather history database for the weather conditions in past years. The results will help you decide how hot, cold, wet, or windy it might be!

Date:

Astronomy

Apr. 24, 2012 Rise Set
Actual Time 5:56 AM MDT 7:33 PM MDT
Civil Twilight 5:27 AM MDT 8:02 PM MDT
Nautical Twilight 4:53 AM MDT 8:36 PM MDT
Astronomical Twilight 4:17 AM MDT 9:13 PM MDT
Moon 7:54 AM MDT (4/24) 10:54 PM MDT (4/24)
Length of Visible Light 14h 34m
Length of Day
13h 37m
Waxing Crescent, 10% of the Moon is Illuminated
Apr 24
Waxing Crescent
Apr 29
First Quarter
May 5
Full
May 12
Last Quarter
May 20
New

Hourly Weather History & Observations

Time (MDT) Temp. Dew Point Humidity Pressure Visibility Wind Dir Wind Speed Gust Speed Precip Events Conditions
12:53 AM 60.1 °F 44.1 °F 55% 29.86 in 10.0 mi SSW 16.1 mph - N/A   Clear
1:53 AM 61.0 °F 45.0 °F 56% 29.82 in 10.0 mi SSW 12.7 mph - N/A   Clear
2:53 AM 60.1 °F 44.1 °F 55% 29.80 in 10.0 mi SW 16.1 mph - N/A   Clear
3:53 AM 59.0 °F 41.0 °F 51% 29.79 in 10.0 mi SW 15.0 mph - N/A   Clear
4:53 AM 57.0 °F 39.9 °F 53% 29.78 in 10.0 mi SW 12.7 mph - N/A   Clear
5:53 AM 57.0 °F 39.0 °F 51% 29.78 in 10.0 mi WSW 15.0 mph - N/A   Clear
6:53 AM 61.0 °F 37.9 °F 42% 29.77 in 10.0 mi SW 17.3 mph - N/A   Clear
7:53 AM 64.9 °F 41.0 °F 42% 29.78 in 10.0 mi WSW 15.0 mph - N/A   Clear
8:53 AM 73.0 °F 44.1 °F 35% 29.75 in 10.0 mi WSW 13.8 mph - N/A   Clear
9:53 AM 82.9 °F 43.0 °F 24% 29.72 in 10.0 mi West 11.5 mph - N/A   Clear
10:53 AM 88.0 °F 37.9 °F 17% 29.70 in 10.0 mi West 12.7 mph - N/A   Clear
11:53 AM 89.1 °F 36.0 °F 15% 29.68 in 10.0 mi NW 11.5 mph - N/A   Clear
12:53 PM 91.0 °F 34.0 °F 13% 29.65 in 10.0 mi NW 15.0 mph 24.2 mph N/A   Clear
1:53 PM 91.9 °F 33.1 °F 12% 29.63 in 10.0 mi NW 10.4 mph - N/A   Clear
2:53 PM 93.0 °F 28.9 °F 10% 29.61 in 10.0 mi WNW 18.4 mph 26.5 mph N/A   Clear
3:53 PM 91.9 °F 28.0 °F 10% 29.58 in 10.0 mi NW 12.7 mph 20.7 mph N/A   Clear
4:53 PM 87.1 °F 27.0 °F 11% 29.61 in 10.0 mi WNW 21.9 mph 34.5 mph N/A   Partly Cloudy
5:07 PM 86.0 °F 28.4 °F 12% 29.73 in 10.0 mi West 11.5 mph 32.2 mph N/A   Mostly Cloudy
5:34 PM 82.4 °F 30.2 °F 15% 29.73 in 8.0 mi NNW 38.0 mph 51.8 mph N/A Thunderstorm Clear
5:53 PM 81.0 °F 41.0 °F 24% 29.65 in 10.0 mi North 23.0 mph 28.8 mph N/A Thunderstorm Partly Cloudy
6:18 PM 80.6 °F 39.2 °F 23% 29.75 in 10.0 mi North 16.1 mph - N/A   Clear
6:53 PM 75.0 °F 44.1 °F 33% 29.63 in 10.0 mi North 4.6 mph - N/A   Clear
7:53 PM 63.0 °F 44.1 °F 50% 29.66 in 8.0 mi WNW 4.6 mph - N/A   Clear
8:53 PM 64.0 °F 41.0 °F 43% 29.66 in 10.0 mi West 8.1 mph - N/A   Clear
9:53 PM 62.1 °F 39.9 °F 44% 29.65 in 10.0 mi WSW 9.2 mph - N/A   Clear
10:53 PM 55.0 °F 39.9 °F 57% 29.63 in 10.0 mi Calm Calm - N/A   Clear
11:53 PM 51.1 °F 39.9 °F 66% 29.65 in 10.0 mi WNW 4.6 mph - N/A   Clear